Regional Weather Roundup
Issued by NWS Grand Forks, ND

Home | Current Version | Previous Version | Text Only | Print | Product List | Glossary Off
Versions: 1 2 3 4 5 6 7 8 9 10 11 12 13 14 15 16 17 18 19 20 21 22 23 24 25 26 27 28 29 30 31 32 33 34 35 36 37 38 39 40 41 42 43 44 45 46 47 48 49 50

000
ASUS43 KFGF 202010
RWRFGF
PRAIRIE TO PINES  WEATHER ROUNDUP
NATIONAL WEATHER SERVICE EASTERN NORTH DAKOTA/GRAND FORKS ND
300 PM CDT THU JUL 20 2017

 **SATELLITE DATA USED TO AUGMENT SKY COVER AT AUTOMATED STATIONS**
 *****  WEATHER ACROSS EASTERN NORTH DAKOTA  *****

CITY           SKY/WX    TMP DP  RH WIND       PRES   REMARKS
GRAND FORKS    FAIR      83  61  47 SW7       29.97F
GRAND FRKS AFB FAIR      81  60  49 S3        29.98F
DEVILS LAKE    FAIR      85  63  47 E13       29.97F
FARGO          FAIR      87  61  41 SE8       29.98F
WAHPETON ARPT  FAIR      82  66  57 S3        30.01S
$$

 ***** WEATHER ACROSS CENTRAL AND WESTERN NORTH DAKOTA  *****

CITY           SKY/WX    TMP DP  RH WIND       PRES   REMARKS
BISMARCK       FAIR      94  56  27 S15G25    29.94F HX  92
MINOT          FAIR      93  60  33 VRB6      29.90F HX  93
JAMESTOWN      FAIR      87  66  49 S13       29.97F
MINOT AFB      FAIR      88  61  39 SW6       29.89F
GARRISON         N/A     93  59  31 S13       29.90F HX  92
WILLISTON      FAIR      84  66  54 NE17G23   29.88F
DICKINSON      FAIR      96  55  25 S21G32    29.89F HX  94
HETTINGER      FAIR      95  57  27 SE17G29   29.94F HX  94
$$

 *****  OTHER AIRPORT OBSERVATIONS IN OUR AREA  *****

CITY           SKY/WX    TMP DP  RH WIND       PRES   REMARKS
WALHALLA       NOT AVBL
GRAFTON AIRPOR FAIR      79  59  50 VRB5      30.01S
VALLEY CITY AR FAIR      84  66  54 SE12      30.01F
CANDO          NOT AVBL
CAVALIER APRT  FAIR      75  59  57 SE5       29.99F
GWINNER        CLEAR     84  70  61 S7        30.00F
ROLLA            N/A     77  63  61 SE9       30.00F
 ***** THE ABOVE OBSERVATIONS ARE NON NWS ARE NOT QUALITY
       CONTROLLED AND MAY MIS-REPORT RAIN FOR SNOW...
$$

  *****  WEATHER ACROSS NORTHERN MINNESOTA  *****

CITY           SKY/WX    TMP DP  RH WIND       PRES   REMARKS
FLAG ISLAND    FAIR      73  52  46 S5        29.99F
WARROAD        FAIR      75  59  57 E7        29.99F
ROSEAU         FAIR      75  59  57 CALM      29.99F
HALLOCK        FAIR      75  57  53 W5        29.99F
THF RVR FALLS  FAIR      78  57  48 S5        30.01F
BAUDETTE       FAIR      75  51  43 VRB5      30.00F
WASKISH        FAIR      79  61  53 W6        29.99F
CROOKSTON      FAIR      82  57  42 CALM      29.99F
STEPHEN NDAWN    N/A     81  55  41 W2          N/A
GREENBUSH NDAW   N/A     75  57  53 SE2         N/A
$$
  *****  WEATHER ACROSS CENTRAL AND WEST MINNESOTA  *****

CITY           SKY/WX    TMP DP  RH WIND       PRES   REMARKS
FOSSTON        FAIR      82  61  47 CALM      30.02R
BEMIDJI        FAIR      80  56  44 CALM      30.01S
PARK RAPIDS    FAIR      89  52  28 MISG      30.01S
ELBOW LAKE     FAIR      83  69  63 W9        30.03S HAZE
WADENA         FAIR      82  63  51 W5        30.03F
DETROIT LAKES  FAIR      82  55  39 W6        30.04S
MOORHEAD       FAIR      84  61  45 S3        30.00F
FERGUS FALLS   FAIR      82  64  54 S3        30.01S
MORRIS MN      FAIR      88  64  45 S8        30.02F
STAPLES        FAIR      82  63  51 SW7       30.03F
$$
  *****  WEATHER ELSEWHERE ACROSS MINNESOTA  *****

CITY           SKY/WX    TMP DP  RH WIND       PRES   REMARKS
DULUTH         FAIR      84  63  49 W10G18    29.99S
INTRNTL FALLS  FAIR      77  53  43 NW7       29.99F
ELY            FAIR      79  50  36 NW8G17    29.99S
CLOQUET        FAIR      84  52  32 W5        30.00S
WHEATON        FAIR      84  64  51 S9        30.03S
BRAINERD       FAIR      82  62  50 W7        30.03R
HIBBING        FAIR      80  57  45 W9        30.00F
ALEXANDRIA     FAIR      83  68  60 VRB5      30.06S
SAINT CLOUD    FAIR      86  66  51 VRB3      30.02S
MINNEAPOLIS    FAIR      85  68  56 VRB7      30.02S
$$

  *****  WEATHER ACROSS SOUTH DAKOTA  *****

CITY           SKY/WX    TMP DP  RH WIND       PRES   REMARKS
SIOUX FALLS    PTSUNNY   86  72  62 E9        30.01F HX  92
BROOKINGS      FAIR      84  66  54 E14       30.04F
WATERTOWN      FAIR      84  65  52 SE8       30.04F
HURON          FAIR      89  64  43 SE13      29.99S HX  90
SISSETON         N/A     88  64  44 SE13G18   30.00F
ABERDEEN       FAIR      88  66  48 S8        30.00F HX  90
MITCHELL       FAIR      88  71  57 SE9       29.99S HX  94
PIERRE         NOT AVBL
MOBRIDGE       FAIR      92  59  33 SE20      29.95S HX  91
RAPID CITY     FAIR      97  57  26 S18G26    29.99F HX  96
$$

  *****  SOME WEATHER IN NEARBY STATES *****

CITY           SKY/WX    TMP DP  RH WIND       PRES   REMARKS
GLASGOW MT       N/A     95  41  15 E18G28    29.83S HX  91
GREAT FALLS MT FAIR      95  23   7 SW17      29.89F
CHEYENNE WY    FAIR      89  48  24 SE6       30.22F
SCOTTSBLUFF NE FAIR      89  63  41 E13G20    30.09F HX  90
OMAHA NE       FAIR      97  72  44 SE5       29.95R HX 105
DES MOINES IA  FAIR      96  72  45 SW6       29.93F HX 104
DAVENPORT IA   FAIR      89  77  67 SW3       29.97F HX 101
CHICAGO IL     CLOUDY    86  73  65 W8        29.95S HX  93
EAU CLAIRE WI  FAIR      84  67  56 NW6       30.00S
LA CROSSE WI   FAIR      88  72  58 NW8       29.98F HX  94
$$

  *****  SOME NATIONAL WEATHER *****

CITY           SKY/WX    TMP DP  RH WIND       PRES   REMARKS
LA GUARDIA NY  FAIR      96  63  33 W12       29.86F HX  97
RALEIGH NC     PTSUNNY   98  64  32 SW7       30.01F HX 100
ATLANTA GA     FAIR      93  68  43 NW12G20   30.07F HX  97
NEW ORLEANS LA FAIR      95  72  47 NE6       30.06F HX 103
OKLAHOMA CITY  FAIR     100  63  29 S14G20    30.03F HX 102
ALBUQUERQUE NM PTSUNNY   84  52  33 CALM      30.24F
SALT LAKE CITY PTSUNNY   91  55  29 S20G29    30.05F
LOS ANGELES CA FAIR      79  66  64 SW12      30.00F
BOISE ID       FAIR      87  43  21 NW12G21   30.04F
SEATTLE WA     PTSUNNY   68  53  58 S14       30.16R
$$

*** WEATHER ACROSS MANITOBA...SASKATCHEWAN AND ONTARIO ***
                ***ONTARIO***

CITY           SKY/WX    TMP DP  RH WIND       PRES   REMARKS
GERALDTON      MOSUNNY   77  50  38 NW9       29.87S
THUNDER BAY    MOSUNNY   81  55  41 W13       29.90F
SIOUX LOOKOUT  PTSUNNY   75  46  35 W12G18    29.96F
TORONTO        PTSUNNY   70  59  68 S5        29.93F
BIG TROUT LK   PTSUNNY   66  43  42 NW15G28   29.80S
PICKLE LAKE    PTSUNNY   72  46  40 NW14G28   29.88S
DRYDEN         SUNNY     73  48  40 W12G18    29.98F
KENORA         MOSUNNY   72  50  46 W5        30.00F
$$
                *** MANITOBA***

CITY           SKY/WX    TMP DP  RH WIND       PRES   REMARKS
BRANDON        MOSUNNY   81  55  41 S5        29.96F
DAUPHIN        SUNNY     79  59  50 SE7       29.94F
ISLAND LAKE    MOSUNNY   70  46  43 W12G20    29.88R
PILOT MOUND      N/A     75  57  53 S7          N/A
THE PAS        MOSUNNY   72  43  35 VRB5      29.94S
THOMPSON       MOSUNNY   64  39  39 N10G24    29.93R
WINNIPEG       MOSUNNY   75  57  53 W6        29.98F
LYNN LAKE      SUNNY     61  34  36 NW8G18    29.98S
CHURCHILL      PTSUNNY   50  41  71 NW18G25   29.82R
GILLAM         PTSUNNY   59  41  51 NW15G23   29.87R
$$
                ***SASKATCHEWAN***

CITY           SKY/WX    TMP DP  RH WIND       PRES   REMARKS
ESTEVAN        LGT RAIN  75  63  64 E12       29.92F
KINDERSLEY     PTSUNNY   82  57  42 SE9       29.86F
LLOYDMINSTER   CLOUDY    70  57  64 E15       29.90F
PRINCE ALBERT  CLOUDY    77  61  57 VRB5      29.94F
REGINA         PTSUNNY   88  50  27 SE10G18   29.92F
YORKTON        SUNNY     81  52  36 SW8       29.94F
N. BATTLEFORD  MOSUNNY   75  57  53 E10       29.92S
LA RONGE       MOSUNNY   72  43  35 NE7       29.96F
SASKATOON      MOSUNNY   82  48  30 E6        29.91F
SWIFT CURRENT  SUNNY     88  48  25 SE13G20   29.88F
$$
NOTE: THESE ARE AUTOMATED STATIONS WITH LIMITED QUALITY CONTROL
      "FAIR" INDICATES FEW OR NO CLOUDS BELOW 12,000 FEET WITH NO
      SIGNIFICANT WEATHER AND/OR OBSTRUCTIONS TO VISIBILITY.
      SKY/WX - SKY CONDITION AND SIGNIFICANT WEATHER.
      TMP - AIR TEMPERATURE.    DP   - DEWPOINT TEMPERATURE.
      RH  - RELATIVE HUMIDITY.  PRES - PRESSURE.
      HX  - HEAT INDEX.         WCI  - WIND CHILL INDEX.
$



USA.gov is the U.S. government's official web portal to all federal, state and local government web resources and services.